User: anonymous   Login
Location: NJAA Observatory
(40.6819°N, 74.8979°W)
Time: 11:01:33
(UTC-05:00)
Language:

Meteor 1-28 Rocket - Orbit

View from above orbital plane
View from above orbital plane
View from above satellite
View from above satellite

Ground track
Ground track

The orbit data is extracted from the following two-line orbital elements,

1 10114U 77057B   15064.53172615  .00002954  00000-0  16214-3 0  9996
2 10114 097.2402 277.5056 0014706 359.8052 000.3172 15.14789460 57094
Epoch (UTC): 05 March 2015 12:45:41
Eccentricity: 0.0014706
inclination: 97.2402°
perigee height: 511 km
apogee height: 532 km
right ascension of ascending node: 277.5056°
argument of perigee: 359.8052°
revolutions per day: 15.14789460
mean anomaly at epoch: 0.3172°
orbit number at epoch: 5709

The dashed part of the orbit path shows where the satellite is in the earth's shadow,  

DLR